﻿_id,datum,uhrzeit_start,uhrzeit_ende,zaehlstelle,richtung_1,richtung_2,gesamt
1,2022.04.01,00:00,00:15,Arnulf,2,0,2
2,2022.04.01,00:15,00:30,Arnulf,4,0,4
3,2022.04.01,00:30,00:45,Arnulf,1,0,1
4,2022.04.01,00:45,01:00,Arnulf,0,0,0
5,2022.04.01,01:00,01:15,Arnulf,1,0,1
6,2022.04.01,01:15,01:30,Arnulf,0,0,0
7,2022.04.01,01:30,01:45,Arnulf,0,0,0
8,2022.04.01,01:45,02:00,Arnulf,1,0,1
9,2022.04.01,02:00,02:15,Arnulf,0,0,0
10,2022.04.01,02:15,02:30,Arnulf,0,0,0
11,2022.04.01,02:30,02:45,Arnulf,1,0,1
12,2022.04.01,02:45,03:00,Arnulf,0,0,0
13,2022.04.01,03:00,03:15,Arnulf,0,0,0
14,2022.04.01,03:15,03:30,Arnulf,0,0,0
15,2022.04.01,03:30,03:45,Arnulf,0,0,0
16,2022.04.01,03:45,04:00,Arnulf,1,0,1
17,2022.04.01,04:00,04:15,Arnulf,0,0,0
18,2022.04.01,04:15,04:30,Arnulf,1,0,1
19,2022.04.01,04:30,04:45,Arnulf,2,0,2
20,2022.04.01,04:45,05:00,Arnulf,0,0,0
21,2022.04.01,05:00,05:15,Arnulf,2,0,2
22,2022.04.01,05:15,05:30,Arnulf,4,0,4
23,2022.04.01,05:30,05:45,Arnulf,3,0,3
24,2022.04.01,05:45,06:00,Arnulf,6,0,6
25,2022.04.01,06:00,06:15,Arnulf,2,0,2
26,2022.04.01,06:15,06:30,Arnulf,2,0,2
27,2022.04.01,06:30,06:45,Arnulf,5,0,5
28,2022.04.01,06:45,07:00,Arnulf,6,0,6
29,2022.04.01,07:00,07:15,Arnulf,7,0,7
30,2022.04.01,07:15,07:30,Arnulf,11,0,11
31,2022.04.01,07:30,07:45,Arnulf,17,0,17
32,2022.04.01,07:45,08:00,Arnulf,16,0,16
33,2022.04.01,08:00,08:15,Arnulf,18,0,18
34,2022.04.01,08:15,08:30,Arnulf,22,0,22
35,2022.04.01,08:30,08:45,Arnulf,15,0,15
36,2022.04.01,08:45,09:00,Arnulf,18,0,18
37,2022.04.01,09:00,09:15,Arnulf,12,0,12
38,2022.04.01,09:15,09:30,Arnulf,9,0,9
39,2022.04.01,09:30,09:45,Arnulf,13,0,13
40,2022.04.01,09:45,10:00,Arnulf,6,0,6
41,2022.04.01,10:00,10:15,Arnulf,3,0,3
42,2022.04.01,10:15,10:30,Arnulf,8,0,8
43,2022.04.01,10:30,10:45,Arnulf,4,0,4
44,2022.04.01,10:45,11:00,Arnulf,4,0,4
45,2022.04.01,11:00,11:15,Arnulf,8,0,8
46,2022.04.01,11:15,11:30,Arnulf,3,0,3
47,2022.04.01,11:30,11:45,Arnulf,2,0,2
48,2022.04.01,11:45,12:00,Arnulf,6,0,6
49,2022.04.01,12:00,12:15,Arnulf,3,0,3
50,2022.04.01,12:15,12:30,Arnulf,7,0,7
51,2022.04.01,12:30,12:45,Arnulf,6,0,6
52,2022.04.01,12:45,13:00,Arnulf,7,0,7
53,2022.04.01,13:00,13:15,Arnulf,3,0,3
54,2022.04.01,13:15,13:30,Arnulf,6,0,6
55,2022.04.01,13:30,13:45,Arnulf,11,0,11
56,2022.04.01,13:45,14:00,Arnulf,11,0,11
57,2022.04.01,14:00,14:15,Arnulf,10,0,10
58,2022.04.01,14:15,14:30,Arnulf,9,0,9
59,2022.04.01,14:30,14:45,Arnulf,12,0,12
60,2022.04.01,14:45,15:00,Arnulf,23,0,23
61,2022.04.01,15:00,15:15,Arnulf,9,0,9
62,2022.04.01,15:15,15:30,Arnulf,9,0,9
63,2022.04.01,15:30,15:45,Arnulf,10,0,10
64,2022.04.01,15:45,16:00,Arnulf,9,0,9
65,2022.04.01,16:00,16:15,Arnulf,9,0,9
66,2022.04.01,16:15,16:30,Arnulf,14,0,14
67,2022.04.01,16:30,16:45,Arnulf,11,0,11
68,2022.04.01,16:45,17:00,Arnulf,11,0,11
69,2022.04.01,17:00,17:15,Arnulf,8,0,8
70,2022.04.01,17:15,17:30,Arnulf,23,0,23
71,2022.04.01,17:30,17:45,Arnulf,16,0,16
72,2022.04.01,17:45,18:00,Arnulf,58,0,58
73,2022.04.01,18:00,18:15,Arnulf,8,0,8
74,2022.04.01,18:15,18:30,Arnulf,9,0,9
75,2022.04.01,18:30,18:45,Arnulf,7,0,7
76,2022.04.01,18:45,19:00,Arnulf,13,0,13
77,2022.04.01,19:00,19:15,Arnulf,6,0,6
78,2022.04.01,19:15,19:30,Arnulf,8,0,8
79,2022.04.01,19:30,19:45,Arnulf,9,0,9
80,2022.04.01,19:45,20:00,Arnulf,2,0,2
81,2022.04.01,20:00,20:15,Arnulf,4,0,4
82,2022.04.01,20:15,20:30,Arnulf,6,0,6
83,2022.04.01,20:30,20:45,Arnulf,0,0,0
84,2022.04.01,20:45,21:00,Arnulf,1,0,1
85,2022.04.01,21:00,21:15,Arnulf,2,0,2
86,2022.04.01,21:15,21:30,Arnulf,1,0,1
87,2022.04.01,21:30,21:45,Arnulf,2,0,2
88,2022.04.01,21:45,22:00,Arnulf,5,0,5
89,2022.04.01,22:00,22:15,Arnulf,2,0,2
90,2022.04.01,22:15,22:30,Arnulf,5,0,5
91,2022.04.01,22:30,22:45,Arnulf,2,0,2
92,2022.04.01,22:45,23:00,Arnulf,2,0,2
93,2022.04.01,23:00,23:15,Arnulf,3,0,3
94,2022.04.01,23:15,23:30,Arnulf,2,0,2
95,2022.04.01,23:30,23:45,Arnulf,3,0,3
96,2022.04.01,23:45,00:00,Arnulf,2,0,2
97,2022.04.02,00:00,00:15,Arnulf,0,0,0
98,2022.04.02,00:15,00:30,Arnulf,1,0,1
99,2022.04.02,00:30,00:45,Arnulf,1,0,1
100,2022.04.02,00:45,01:00,Arnulf,0,0,0
101,2022.04.02,01:00,01:15,Arnulf,0,0,0
102,2022.04.02,01:15,01:30,Arnulf,1,0,1
103,2022.04.02,01:30,01:45,Arnulf,1,0,1
104,2022.04.02,01:45,02:00,Arnulf,1,0,1
105,2022.04.02,02:00,02:15,Arnulf,1,0,1
106,2022.04.02,02:15,02:30,Arnulf,2,0,2
107,2022.04.02,02:30,02:45,Arnulf,0,0,0
108,2022.04.02,02:45,03:00,Arnulf,1,0,1
109,2022.04.02,03:00,03:15,Arnulf,2,0,2
110,2022.04.02,03:15,03:30,Arnulf,1,0,1
111,2022.04.02,03:30,03:45,Arnulf,2,0,2
112,2022.04.02,03:45,04:00,Arnulf,0,0,0
113,2022.04.02,04:00,04:15,Arnulf,0,0,0
114,2022.04.02,04:15,04:30,Arnulf,1,0,1
115,2022.04.02,04:30,04:45,Arnulf,2,0,2
116,2022.04.02,04:45,05:00,Arnulf,0,0,0
117,2022.04.02,05:00,05:15,Arnulf,2,0,2
118,2022.04.02,05:15,05:30,Arnulf,3,0,3
119,2022.04.02,05:30,05:45,Arnulf,2,0,2
120,2022.04.02,05:45,06:00,Arnulf,1,0,1
121,2022.04.02,06:00,06:15,Arnulf,2,0,2
122,2022.04.02,06:15,06:30,Arnulf,2,0,2
123,2022.04.02,06:30,06:45,Arnulf,1,0,1
124,2022.04.02,06:45,07:00,Arnulf,2,0,2
125,2022.04.02,07:00,07:15,Arnulf,0,0,0
126,2022.04.02,07:15,07:30,Arnulf,1,0,1
127,2022.04.02,07:30,07:45,Arnulf,0,0,0
128,2022.04.02,07:45,08:00,Arnulf,1,0,1
129,2022.04.02,08:00,08:15,Arnulf,0,0,0
130,2022.04.02,08:15,08:30,Arnulf,4,0,4
131,2022.04.02,08:30,08:45,Arnulf,3,0,3
132,2022.04.02,08:45,09:00,Arnulf,0,0,0
133,2022.04.02,09:00,09:15,Arnulf,6,0,6
134,2022.04.02,09:15,09:30,Arnulf,2,0,2
135,2022.04.02,09:30,09:45,Arnulf,4,0,4
136,2022.04.02,09:45,10:00,Arnulf,7,0,7
137,2022.04.02,10:00,10:15,Arnulf,6,0,6
138,2022.04.02,10:15,10:30,Arnulf,8,0,8
139,2022.04.02,10:30,10:45,Arnulf,3,0,3
140,2022.04.02,10:45,11:00,Arnulf,6,0,6
141,2022.04.02,11:00,11:15,Arnulf,3,0,3
142,2022.04.02,11:15,11:30,Arnulf,4,0,4
143,2022.04.02,11:30,11:45,Arnulf,4,0,4
144,2022.04.02,11:45,12:00,Arnulf,6,0,6
145,2022.04.02,12:00,12:15,Arnulf,6,0,6
146,2022.04.02,12:15,12:30,Arnulf,9,0,9
147,2022.04.02,12:30,12:45,Arnulf,3,0,3
148,2022.04.02,12:45,13:00,Arnulf,3,0,3
149,2022.04.02,13:00,13:15,Arnulf,16,0,16
150,2022.04.02,13:15,13:30,Arnulf,6,0,6
151,2022.04.02,13:30,13:45,Arnulf,9,0,9
152,2022.04.02,13:45,14:00,Arnulf,2,0,2
153,2022.04.02,14:00,14:15,Arnulf,8,0,8
154,2022.04.02,14:15,14:30,Arnulf,3,0,3
155,2022.04.02,14:30,14:45,Arnulf,8,0,8
156,2022.04.02,14:45,15:00,Arnulf,7,0,7
157,2022.04.02,15:00,15:15,Arnulf,6,0,6
158,2022.04.02,15:15,15:30,Arnulf,2,0,2
159,2022.04.02,15:30,15:45,Arnulf,3,0,3
160,2022.04.02,15:45,16:00,Arnulf,1,0,1
161,2022.04.02,16:00,16:15,Arnulf,3,0,3
162,2022.04.02,16:15,16:30,Arnulf,4,0,4
163,2022.04.02,16:30,16:45,Arnulf,4,0,4
164,2022.04.02,16:45,17:00,Arnulf,3,0,3
165,2022.04.02,17:00,17:15,Arnulf,7,0,7
166,2022.04.02,17:15,17:30,Arnulf,7,0,7
167,2022.04.02,17:30,17:45,Arnulf,5,0,5
168,2022.04.02,17:45,18:00,Arnulf,4,0,4
169,2022.04.02,18:00,18:15,Arnulf,2,0,2
170,2022.04.02,18:15,18:30,Arnulf,4,0,4
171,2022.04.02,18:30,18:45,Arnulf,4,0,4
172,2022.04.02,18:45,19:00,Arnulf,5,0,5
173,2022.04.02,19:00,19:15,Arnulf,8,0,8
174,2022.04.02,19:15,19:30,Arnulf,4,0,4
175,2022.04.02,19:30,19:45,Arnulf,5,0,5
176,2022.04.02,19:45,20:00,Arnulf,1,0,1
177,2022.04.02,20:00,20:15,Arnulf,2,0,2
178,2022.04.02,20:15,20:30,Arnulf,3,0,3
179,2022.04.02,20:30,20:45,Arnulf,1,0,1
180,2022.04.02,20:45,21:00,Arnulf,2,0,2
181,2022.04.02,21:00,21:15,Arnulf,2,0,2
182,2022.04.02,21:15,21:30,Arnulf,1,0,1
183,2022.04.02,21:30,21:45,Arnulf,3,0,3
184,2022.04.02,21:45,22:00,Arnulf,5,0,5
185,2022.04.02,22:00,22:15,Arnulf,2,0,2
186,2022.04.02,22:15,22:30,Arnulf,1,0,1
187,2022.04.02,22:30,22:45,Arnulf,1,0,1
188,2022.04.02,22:45,23:00,Arnulf,2,0,2
189,2022.04.02,23:00,23:15,Arnulf,1,0,1
190,2022.04.02,23:15,23:30,Arnulf,2,0,2
191,2022.04.02,23:30,23:45,Arnulf,1,0,1
192,2022.04.02,23:45,00:00,Arnulf,0,0,0
193,2022.04.03,00:00,00:15,Arnulf,1,0,1
194,2022.04.03,00:15,00:30,Arnulf,1,0,1
195,2022.04.03,00:30,00:45,Arnulf,2,0,2
196,2022.04.03,00:45,01:00,Arnulf,0,0,0
197,2022.04.03,01:00,01:15,Arnulf,0,0,0
198,2022.04.03,01:15,01:30,Arnulf,0,0,0
199,2022.04.03,01:30,01:45,Arnulf,1,0,1
200,2022.04.03,01:45,02:00,Arnulf,0,0,0
201,2022.04.03,02:00,02:15,Arnulf,1,0,1
202,2022.04.03,02:15,02:30,Arnulf,0,0,0
203,2022.04.03,02:30,02:45,Arnulf,1,0,1
204,2022.04.03,02:45,03:00,Arnulf,0,0,0
205,2022.04.03,03:00,03:15,Arnulf,1,0,1
206,2022.04.03,03:15,03:30,Arnulf,2,0,2
207,2022.04.03,03:30,03:45,Arnulf,0,0,0
208,2022.04.03,03:45,04:00,Arnulf,1,0,1
209,2022.04.03,04:00,04:15,Arnulf,0,0,0
210,2022.04.03,04:15,04:30,Arnulf,1,0,1
211,2022.04.03,04:30,04:45,Arnulf,1,0,1
212,2022.04.03,04:45,05:00,Arnulf,3,0,3
213,2022.04.03,05:00,05:15,Arnulf,0,0,0
214,2022.04.03,05:15,05:30,Arnulf,1,0,1
215,2022.04.03,05:30,05:45,Arnulf,0,0,0
216,2022.04.03,05:45,06:00,Arnulf,1,0,1
217,2022.04.03,06:00,06:15,Arnulf,2,0,2
218,2022.04.03,06:15,06:30,Arnulf,0,0,0
219,2022.04.03,06:30,06:45,Arnulf,7,0,7
220,2022.04.03,06:45,07:00,Arnulf,2,0,2
221,2022.04.03,07:00,07:15,Arnulf,5,0,5
222,2022.04.03,07:15,07:30,Arnulf,1,0,1
223,2022.04.03,07:30,07:45,Arnulf,1,0,1
224,2022.04.03,07:45,08:00,Arnulf,2,0,2
225,2022.04.03,08:00,08:15,Arnulf,1,0,1
226,2022.04.03,08:15,08:30,Arnulf,1,0,1
227,2022.04.03,08:30,08:45,Arnulf,1,0,1
228,2022.04.03,08:45,09:00,Arnulf,3,0,3
229,2022.04.03,09:00,09:15,Arnulf,3,0,3
230,2022.04.03,09:15,09:30,Arnulf,5,0,5
231,2022.04.03,09:30,09:45,Arnulf,7,0,7
232,2022.04.03,09:45,10:00,Arnulf,8,0,8
233,2022.04.03,10:00,10:15,Arnulf,2,0,2
234,2022.04.03,10:15,10:30,Arnulf,4,0,4
235,2022.04.03,10:30,10:45,Arnulf,2,0,2
236,2022.04.03,10:45,11:00,Arnulf,4,0,4
237,2022.04.03,11:00,11:15,Arnulf,4,0,4
238,2022.04.03,11:15,11:30,Arnulf,6,0,6
239,2022.04.03,11:30,11:45,Arnulf,6,0,6
240,2022.04.03,11:45,12:00,Arnulf,6,0,6
241,2022.04.03,12:00,12:15,Arnulf,5,0,5
242,2022.04.03,12:15,12:30,Arnulf,2,0,2
243,2022.04.03,12:30,12:45,Arnulf,2,0,2
244,2022.04.03,12:45,13:00,Arnulf,14,0,14
245,2022.04.03,13:00,13:15,Arnulf,3,0,3
246,2022.04.03,13:15,13:30,Arnulf,4,0,4
247,2022.04.03,13:30,13:45,Arnulf,7,0,7
248,2022.04.03,13:45,14:00,Arnulf,7,0,7
249,2022.04.03,14:00,14:15,Arnulf,7,0,7
250,2022.04.03,14:15,14:30,Arnulf,7,0,7
251,2022.04.03,14:30,14:45,Arnulf,8,0,8
252,2022.04.03,14:45,15:00,Arnulf,10,0,10
253,2022.04.03,15:00,15:15,Arnulf,6,0,6
254,2022.04.03,15:15,15:30,Arnulf,9,0,9
255,2022.04.03,15:30,15:45,Arnulf,3,0,3
256,2022.04.03,15:45,16:00,Arnulf,6,0,6
257,2022.04.03,16:00,16:15,Arnulf,3,0,3
258,2022.04.03,16:15,16:30,Arnulf,6,0,6
259,2022.04.03,16:30,16:45,Arnulf,11,0,11
260,2022.04.03,16:45,17:00,Arnulf,7,0,7
261,2022.04.03,17:00,17:15,Arnulf,8,0,8
262,2022.04.03,17:15,17:30,Arnulf,7,0,7
263,2022.04.03,17:30,17:45,Arnulf,5,0,5
264,2022.04.03,17:45,18:00,Arnulf,7,0,7
265,2022.04.03,18:00,18:15,Arnulf,5,0,5
266,2022.04.03,18:15,18:30,Arnulf,11,0,11
267,2022.04.03,18:30,18:45,Arnulf,6,0,6
268,2022.04.03,18:45,19:00,Arnulf,10,0,10
269,2022.04.03,19:00,19:15,Arnulf,2,0,2
270,2022.04.03,19:15,19:30,Arnulf,5,0,5
271,2022.04.03,19:30,19:45,Arnulf,4,0,4
272,2022.04.03,19:45,20:00,Arnulf,9,0,9
273,2022.04.03,20:00,20:15,Arnulf,7,0,7
274,2022.04.03,20:15,20:30,Arnulf,3,0,3
275,2022.04.03,20:30,20:45,Arnulf,4,0,4
276,2022.04.03,20:45,21:00,Arnulf,2,0,2
277,2022.04.03,21:00,21:15,Arnulf,2,0,2
278,2022.04.03,21:15,21:30,Arnulf,4,0,4
279,2022.04.03,21:30,21:45,Arnulf,3,0,3
280,2022.04.03,21:45,22:00,Arnulf,2,0,2
281,2022.04.03,22:00,22:15,Arnulf,3,0,3
282,2022.04.03,22:15,22:30,Arnulf,3,0,3
283,2022.04.03,22:30,22:45,Arnulf,5,0,5
284,2022.04.03,22:45,23:00,Arnulf,1,0,1
285,2022.04.03,23:00,23:15,Arnulf,2,0,2
286,2022.04.03,23:15,23:30,Arnulf,2,0,2
287,2022.04.03,23:30,23:45,Arnulf,0,0,0
288,2022.04.03,23:45,00:00,Arnulf,1,0,1
289,2022.04.04,00:00,00:15,Arnulf,1,0,1
290,2022.04.04,00:15,00:30,Arnulf,1,0,1
291,2022.04.04,00:30,00:45,Arnulf,0,0,0
292,2022.04.04,00:45,01:00,Arnulf,1,0,1
293,2022.04.04,01:00,01:15,Arnulf,0,0,0
294,2022.04.04,01:15,01:30,Arnulf,1,0,1
295,2022.04.04,01:30,01:45,Arnulf,0,0,0
296,2022.04.04,01:45,02:00,Arnulf,0,0,0
297,2022.04.04,02:00,02:15,Arnulf,1,0,1
298,2022.04.04,02:15,02:30,Arnulf,0,0,0
299,2022.04.04,02:30,02:45,Arnulf,1,0,1
300,2022.04.04,02:45,03:00,Arnulf,2,0,2
301,2022.04.04,03:00,03:15,Arnulf,0,0,0
302,2022.04.04,03:15,03:30,Arnulf,0,0,0
303,2022.04.04,03:30,03:45,Arnulf,0,0,0
304,2022.04.04,03:45,04:00,Arnulf,1,0,1
305,2022.04.04,04:00,04:15,Arnulf,0,0,0
306,2022.04.04,04:15,04:30,Arnulf,3,0,3
307,2022.04.04,04:30,04:45,Arnulf,1,0,1
308,2022.04.04,04:45,05:00,Arnulf,2,0,2
309,2022.04.04,05:00,05:15,Arnulf,3,0,3
310,2022.04.04,05:15,05:30,Arnulf,2,0,2
311,2022.04.04,05:30,05:45,Arnulf,4,0,4
312,2022.04.04,05:45,06:00,Arnulf,2,0,2
313,2022.04.04,06:00,06:15,Arnulf,3,0,3
314,2022.04.04,06:15,06:30,Arnulf,7,0,7
315,2022.04.04,06:30,06:45,Arnulf,7,0,7
316,2022.04.04,06:45,07:00,Arnulf,13,0,13
317,2022.04.04,07:00,07:15,Arnulf,12,0,12
318,2022.04.04,07:15,07:30,Arnulf,21,0,21
319,2022.04.04,07:30,07:45,Arnulf,15,0,15
320,2022.04.04,07:45,08:00,Arnulf,31,0,31
321,2022.04.04,08:00,08:15,Arnulf,33,0,33
322,2022.04.04,08:15,08:30,Arnulf,37,0,37
323,2022.04.04,08:30,08:45,Arnulf,45,0,45
324,2022.04.04,08:45,09:00,Arnulf,42,0,42
325,2022.04.04,09:00,09:15,Arnulf,31,0,31
326,2022.04.04,09:15,09:30,Arnulf,23,0,23
327,2022.04.04,09:30,09:45,Arnulf,13,0,13
328,2022.04.04,09:45,10:00,Arnulf,13,0,13
329,2022.04.04,10:00,10:15,Arnulf,8,0,8
330,2022.04.04,10:15,10:30,Arnulf,15,0,15
331,2022.04.04,10:30,10:45,Arnulf,13,0,13
332,2022.04.04,10:45,11:00,Arnulf,11,0,11
333,2022.04.04,11:00,11:15,Arnulf,11,0,11
334,2022.04.04,11:15,11:30,Arnulf,10,0,10
335,2022.04.04,11:30,11:45,Arnulf,13,0,13
336,2022.04.04,11:45,12:00,Arnulf,15,0,15
337,2022.04.04,12:00,12:15,Arnulf,10,0,10
338,2022.04.04,12:15,12:30,Arnulf,9,0,9
339,2022.04.04,12:30,12:45,Arnulf,15,0,15
340,2022.04.04,12:45,13:00,Arnulf,18,0,18
341,2022.04.04,13:00,13:15,Arnulf,8,0,8
342,2022.04.04,13:15,13:30,Arnulf,13,0,13
343,2022.04.04,13:30,13:45,Arnulf,9,0,9
344,2022.04.04,13:45,14:00,Arnulf,13,0,13
345,2022.04.04,14:00,14:15,Arnulf,10,0,10
346,2022.04.04,14:15,14:30,Arnulf,7,0,7
347,2022.04.04,14:30,14:45,Arnulf,18,0,18
348,2022.04.04,14:45,15:00,Arnulf,13,0,13
349,2022.04.04,15:00,15:15,Arnulf,11,0,11
350,2022.04.04,15:15,15:30,Arnulf,11,0,11
351,2022.04.04,15:30,15:45,Arnulf,14,0,14
352,2022.04.04,15:45,16:00,Arnulf,16,0,16
353,2022.04.04,16:00,16:15,Arnulf,21,0,21
354,2022.04.04,16:15,16:30,Arnulf,16,0,16
355,2022.04.04,16:30,16:45,Arnulf,26,0,26
356,2022.04.04,16:45,17:00,Arnulf,18,0,18
357,2022.04.04,17:00,17:15,Arnulf,17,0,17
358,2022.04.04,17:15,17:30,Arnulf,29,0,29
359,2022.04.04,17:30,17:45,Arnulf,31,0,31
360,2022.04.04,17:45,18:00,Arnulf,28,0,28
361,2022.04.04,18:00,18:15,Arnulf,37,0,37
362,2022.04.04,18:15,18:30,Arnulf,38,0,38
363,2022.04.04,18:30,18:45,Arnulf,26,0,26
364,2022.04.04,18:45,19:00,Arnulf,18,0,18
365,2022.04.04,19:00,19:15,Arnulf,23,0,23
366,2022.04.04,19:15,19:30,Arnulf,17,0,17
367,2022.04.04,19:30,19:45,Arnulf,18,0,18
368,2022.04.04,19:45,20:00,Arnulf,6,0,6
369,2022.04.04,20:00,20:15,Arnulf,8,0,8
370,2022.04.04,20:15,20:30,Arnulf,11,0,11
371,2022.04.04,20:30,20:45,Arnulf,9,0,9
372,2022.04.04,20:45,21:00,Arnulf,5,0,5
373,2022.04.04,21:00,21:15,Arnulf,9,0,9
374,2022.04.04,21:15,21:30,Arnulf,4,0,4
375,2022.04.04,21:30,21:45,Arnulf,1,0,1
376,2022.04.04,21:45,22:00,Arnulf,4,0,4
377,2022.04.04,22:00,22:15,Arnulf,3,0,3
378,2022.04.04,22:15,22:30,Arnulf,4,0,4
379,2022.04.04,22:30,22:45,Arnulf,5,0,5
380,2022.04.04,22:45,23:00,Arnulf,5,0,5
381,2022.04.04,23:00,23:15,Arnulf,3,0,3
382,2022.04.04,23:15,23:30,Arnulf,1,0,1
383,2022.04.04,23:30,23:45,Arnulf,1,0,1
384,2022.04.04,23:45,00:00,Arnulf,5,0,5
385,2022.04.05,00:00,00:15,Arnulf,2,0,2
386,2022.04.05,00:15,00:30,Arnulf,1,0,1
387,2022.04.05,00:30,00:45,Arnulf,2,0,2
388,2022.04.05,00:45,01:00,Arnulf,2,0,2
389,2022.04.05,01:00,01:15,Arnulf,0,0,0
390,2022.04.05,01:15,01:30,Arnulf,1,0,1
391,2022.04.05,01:30,01:45,Arnulf,0,0,0
392,2022.04.05,01:45,02:00,Arnulf,0,0,0
393,2022.04.05,02:00,02:15,Arnulf,0,0,0
394,2022.04.05,02:15,02:30,Arnulf,0,0,0
395,2022.04.05,02:30,02:45,Arnulf,0,0,0
396,2022.04.05,02:45,03:00,Arnulf,0,0,0
397,2022.04.05,03:00,03:15,Arnulf,0,0,0
398,2022.04.05,03:15,03:30,Arnulf,0,0,0
399,2022.04.05,03:30,03:45,Arnulf,0,0,0
400,2022.04.05,03:45,04:00,Arnulf,0,0,0
401,2022.04.05,04:00,04:15,Arnulf,0,0,0
402,2022.04.05,04:15,04:30,Arnulf,0,0,0
403,2022.04.05,04:30,04:45,Arnulf,0,0,0
404,2022.04.05,04:45,05:00,Arnulf,1,0,1
405,2022.04.05,05:00,05:15,Arnulf,1,0,1
406,2022.04.05,05:15,05:30,Arnulf,2,0,2
407,2022.04.05,05:30,05:45,Arnulf,8,0,8
408,2022.04.05,05:45,06:00,Arnulf,1,0,1
409,2022.04.05,06:00,06:15,Arnulf,0,0,0
410,2022.04.05,06:15,06:30,Arnulf,6,0,6
411,2022.04.05,06:30,06:45,Arnulf,11,0,11
412,2022.04.05,06:45,07:00,Arnulf,3,0,3
413,2022.04.05,07:00,07:15,Arnulf,8,0,8
414,2022.04.05,07:15,07:30,Arnulf,20,0,20
415,2022.04.05,07:30,07:45,Arnulf,16,0,16
416,2022.04.05,07:45,08:00,Arnulf,22,0,22
417,2022.04.05,08:00,08:15,Arnulf,23,0,23
418,2022.04.05,08:15,08:30,Arnulf,27,0,27
419,2022.04.05,08:30,08:45,Arnulf,17,0,17
420,2022.04.05,08:45,09:00,Arnulf,27,0,27
421,2022.04.05,09:00,09:15,Arnulf,16,0,16
422,2022.04.05,09:15,09:30,Arnulf,8,0,8
423,2022.04.05,09:30,09:45,Arnulf,11,0,11
424,2022.04.05,09:45,10:00,Arnulf,12,0,12
425,2022.04.05,10:00,10:15,Arnulf,13,0,13
426,2022.04.05,10:15,10:30,Arnulf,13,0,13
427,2022.04.05,10:30,10:45,Arnulf,8,0,8
428,2022.04.05,10:45,11:00,Arnulf,5,0,5
429,2022.04.05,11:00,11:15,Arnulf,8,0,8
430,2022.04.05,11:15,11:30,Arnulf,7,0,7
431,2022.04.05,11:30,11:45,Arnulf,4,0,4
432,2022.04.05,11:45,12:00,Arnulf,5,0,5
433,2022.04.05,12:00,12:15,Arnulf,18,0,18
434,2022.04.05,12:15,12:30,Arnulf,7,0,7
435,2022.04.05,12:30,12:45,Arnulf,3,0,3
436,2022.04.05,12:45,13:00,Arnulf,10,0,10
437,2022.04.05,13:00,13:15,Arnulf,7,0,7
438,2022.04.05,13:15,13:30,Arnulf,10,0,10
439,2022.04.05,13:30,13:45,Arnulf,7,0,7
440,2022.04.05,13:45,14:00,Arnulf,8,0,8
441,2022.04.05,14:00,14:15,Arnulf,8,0,8
442,2022.04.05,14:15,14:30,Arnulf,3,0,3
443,2022.04.05,14:30,14:45,Arnulf,11,0,11
444,2022.04.05,14:45,15:00,Arnulf,5,0,5
445,2022.04.05,15:00,15:15,Arnulf,5,0,5
446,2022.04.05,15:15,15:30,Arnulf,13,0,13
447,2022.04.05,15:30,15:45,Arnulf,9,0,9
448,2022.04.05,15:45,16:00,Arnulf,8,0,8
449,2022.04.05,16:00,16:15,Arnulf,13,0,13
450,2022.04.05,16:15,16:30,Arnulf,11,0,11
451,2022.04.05,16:30,16:45,Arnulf,15,0,15
452,2022.04.05,16:45,17:00,Arnulf,18,0,18
453,2022.04.05,17:00,17:15,Arnulf,11,0,11
454,2022.04.05,17:15,17:30,Arnulf,23,0,23
455,2022.04.05,17:30,17:45,Arnulf,25,0,25
456,2022.04.05,17:45,18:00,Arnulf,24,0,24
457,2022.04.05,18:00,18:15,Arnulf,23,0,23
458,2022.04.05,18:15,18:30,Arnulf,22,0,22
459,2022.04.05,18:30,18:45,Arnulf,19,0,19
460,2022.04.05,18:45,19:00,Arnulf,20,0,20
461,2022.04.05,19:00,19:15,Arnulf,19,0,19
462,2022.04.05,19:15,19:30,Arnulf,12,0,12
463,2022.04.05,19:30,19:45,Arnulf,13,0,13
464,2022.04.05,19:45,20:00,Arnulf,10,0,10
465,2022.04.05,20:00,20:15,Arnulf,4,0,4
466,2022.04.05,20:15,20:30,Arnulf,7,0,7
467,2022.04.05,20:30,20:45,Arnulf,8,0,8
468,2022.04.05,20:45,21:00,Arnulf,4,0,4
469,2022.04.05,21:00,21:15,Arnulf,7,0,7
470,2022.04.05,21:15,21:30,Arnulf,7,0,7
471,2022.04.05,21:30,21:45,Arnulf,8,0,8
472,2022.04.05,21:45,22:00,Arnulf,4,0,4
473,2022.04.05,22:00,22:15,Arnulf,2,0,2
474,2022.04.05,22:15,22:30,Arnulf,4,0,4
475,2022.04.05,22:30,22:45,Arnulf,6,0,6
476,2022.04.05,22:45,23:00,Arnulf,3,0,3
477,2022.04.05,23:00,23:15,Arnulf,2,0,2
478,2022.04.05,23:15,23:30,Arnulf,1,0,1
479,2022.04.05,23:30,23:45,Arnulf,2,0,2
480,2022.04.05,23:45,00:00,Arnulf,0,0,0
481,2022.04.06,00:00,00:15,Arnulf,1,0,1
482,2022.04.06,00:15,00:30,Arnulf,0,0,0
483,2022.04.06,00:30,00:45,Arnulf,0,0,0
484,2022.04.06,00:45,01:00,Arnulf,0,0,0
485,2022.04.06,01:00,01:15,Arnulf,0,0,0
486,2022.04.06,01:15,01:30,Arnulf,0,0,0
487,2022.04.06,01:30,01:45,Arnulf,0,0,0
488,2022.04.06,01:45,02:00,Arnulf,0,0,0
489,2022.04.06,02:00,02:15,Arnulf,2,0,2
490,2022.04.06,02:15,02:30,Arnulf,0,0,0
491,2022.04.06,02:30,02:45,Arnulf,0,0,0
492,2022.04.06,02:45,03:00,Arnulf,0,0,0
493,2022.04.06,03:00,03:15,Arnulf,0,0,0
494,2022.04.06,03:15,03:30,Arnulf,0,0,0
495,2022.04.06,03:30,03:45,Arnulf,0,0,0
496,2022.04.06,03:45,04:00,Arnulf,0,0,0
497,2022.04.06,04:00,04:15,Arnulf,0,0,0
498,2022.04.06,04:15,04:30,Arnulf,0,0,0
499,2022.04.06,04:30,04:45,Arnulf,2,0,2
500,2022.04.06,04:45,05:00,Arnulf,2,0,2
501,2022.04.06,05:00,05:15,Arnulf,1,0,1
502,2022.04.06,05:15,05:30,Arnulf,1,0,1
503,2022.04.06,05:30,05:45,Arnulf,6,0,6
504,2022.04.06,05:45,06:00,Arnulf,2,0,2
505,2022.04.06,06:00,06:15,Arnulf,4,0,4
506,2022.04.06,06:15,06:30,Arnulf,7,0,7
507,2022.04.06,06:30,06:45,Arnulf,12,0,12
508,2022.04.06,06:45,07:00,Arnulf,10,0,10
509,2022.04.06,07:00,07:15,Arnulf,9,0,9
510,2022.04.06,07:15,07:30,Arnulf,34,0,34
511,2022.04.06,07:30,07:45,Arnulf,23,0,23
512,2022.04.06,07:45,08:00,Arnulf,30,0,30
513,2022.04.06,08:00,08:15,Arnulf,47,0,47
514,2022.04.06,08:15,08:30,Arnulf,56,0,56
515,2022.04.06,08:30,08:45,Arnulf,42,0,42
516,2022.04.06,08:45,09:00,Arnulf,32,0,32
517,2022.04.06,09:00,09:15,Arnulf,33,0,33
518,2022.04.06,09:15,09:30,Arnulf,27,0,27
519,2022.04.06,09:30,09:45,Arnulf,18,0,18
520,2022.04.06,09:45,10:00,Arnulf,20,0,20
521,2022.04.06,10:00,10:15,Arnulf,14,0,14
522,2022.04.06,10:15,10:30,Arnulf,15,0,15
523,2022.04.06,10:30,10:45,Arnulf,10,0,10
524,2022.04.06,10:45,11:00,Arnulf,22,0,22
525,2022.04.06,11:00,11:15,Arnulf,14,0,14
526,2022.04.06,11:15,11:30,Arnulf,17,0,17
527,2022.04.06,11:30,11:45,Arnulf,19,0,19
528,2022.04.06,11:45,12:00,Arnulf,18,0,18
529,2022.04.06,12:00,12:15,Arnulf,16,0,16
530,2022.04.06,12:15,12:30,Arnulf,16,0,16
531,2022.04.06,12:30,12:45,Arnulf,25,0,25
532,2022.04.06,12:45,13:00,Arnulf,15,0,15
533,2022.04.06,13:00,13:15,Arnulf,16,0,16
534,2022.04.06,13:15,13:30,Arnulf,18,0,18
535,2022.04.06,13:30,13:45,Arnulf,17,0,17
536,2022.04.06,13:45,14:00,Arnulf,17,0,17
537,2022.04.06,14:00,14:15,Arnulf,19,0,19
538,2022.04.06,14:15,14:30,Arnulf,17,0,17
539,2022.04.06,14:30,14:45,Arnulf,17,0,17
540,2022.04.06,14:45,15:00,Arnulf,12,0,12
541,2022.04.06,15:00,15:15,Arnulf,10,0,10
542,2022.04.06,15:15,15:30,Arnulf,22,0,22
543,2022.04.06,15:30,15:45,Arnulf,22,0,22
544,2022.04.06,15:45,16:00,Arnulf,20,0,20
545,2022.04.06,16:00,16:15,Arnulf,21,0,21
546,2022.04.06,16:15,16:30,Arnulf,22,0,22
547,2022.04.06,16:30,16:45,Arnulf,22,0,22
548,2022.04.06,16:45,17:00,Arnulf,24,0,24
549,2022.04.06,17:00,17:15,Arnulf,25,0,25
550,2022.04.06,17:15,17:30,Arnulf,38,0,38
551,2022.04.06,17:30,17:45,Arnulf,35,0,35
552,2022.04.06,17:45,18:00,Arnulf,42,0,42
553,2022.04.06,18:00,18:15,Arnulf,42,0,42
554,2022.04.06,18:15,18:30,Arnulf,47,0,47
555,2022.04.06,18:30,18:45,Arnulf,29,0,29
556,2022.04.06,18:45,19:00,Arnulf,32,0,32
557,2022.04.06,19:00,19:15,Arnulf,25,0,25
558,2022.04.06,19:15,19:30,Arnulf,20,0,20
559,2022.04.06,19:30,19:45,Arnulf,23,0,23
560,2022.04.06,19:45,20:00,Arnulf,12,0,12
561,2022.04.06,20:00,20:15,Arnulf,15,0,15
562,2022.04.06,20:15,20:30,Arnulf,14,0,14
563,2022.04.06,20:30,20:45,Arnulf,9,0,9
564,2022.04.06,20:45,21:00,Arnulf,9,0,9
565,2022.04.06,21:00,21:15,Arnulf,10,0,10
566,2022.04.06,21:15,21:30,Arnulf,8,0,8
567,2022.04.06,21:30,21:45,Arnulf,7,0,7
568,2022.04.06,21:45,22:00,Arnulf,6,0,6
569,2022.04.06,22:00,22:15,Arnulf,1,0,1
570,2022.04.06,22:15,22:30,Arnulf,11,0,11
571,2022.04.06,22:30,22:45,Arnulf,7,0,7
572,2022.04.06,22:45,23:00,Arnulf,3,0,3
573,2022.04.06,23:00,23:15,Arnulf,7,0,7
574,2022.04.06,23:15,23:30,Arnulf,4,0,4
575,2022.04.06,23:30,23:45,Arnulf,4,0,4
576,2022.04.06,23:45,00:00,Arnulf,7,0,7
577,2022.04.07,00:00,00:15,Arnulf,1,0,1
578,2022.04.07,00:15,00:30,Arnulf,1,0,1
579,2022.04.07,00:30,00:45,Arnulf,3,0,3
580,2022.04.07,00:45,01:00,Arnulf,0,0,0
581,2022.04.07,01:00,01:15,Arnulf,1,0,1
582,2022.04.07,01:15,01:30,Arnulf,1,0,1
583,2022.04.07,01:30,01:45,Arnulf,0,0,0
584,2022.04.07,01:45,02:00,Arnulf,1,0,1
585,2022.04.07,02:00,02:15,Arnulf,0,0,0
586,2022.04.07,02:15,02:30,Arnulf,0,0,0
587,2022.04.07,02:30,02:45,Arnulf,0,0,0
588,2022.04.07,02:45,03:00,Arnulf,0,0,0
589,2022.04.07,03:00,03:15,Arnulf,1,0,1
590,2022.04.07,03:15,03:30,Arnulf,0,0,0
591,2022.04.07,03:30,03:45,Arnulf,0,0,0
592,2022.04.07,03:45,04:00,Arnulf,0,0,0